Regional Weather Roundup
Issued by NWS

Home | Current Version | Previous Version | Graphics & Text | Print | Product List | Glossary On
Versions: 1 2 3 4 5 6 7 8 9 10 11 12 13 14 15 16 17 18 19 20 21 22 23 24 25 26 27 28 29 30 31 32 33 34 35 36 37 38 39 40 41 42 43 44 45 46 47 48 49 50
000
ASUS43 KBIS 261831
RWRND
NORTH DAKOTA REGIONAL WEATHER ROUNDUP
NATIONAL WEATHER SERVICE EASTERN NORTH DAKOTA/GRAND FORKS ND
100 PM CDT FRI MAY 26 2017

  NOTE: "FAIR" INDICATES FEW OR NO CLOUDS BELOW 12,000 FEET WITH NO
  SIGNIFICANT WEATHER AND/OR OBSTRUCTIONS TO VISIBILITY.

NDZ001>003-009>011-017-261900-
...NORTHWEST NORTH DAKOTA...

CITY           SKY/WX    TMP DP  RH WIND       PRES   REMARKS
WILLISTON      PTSUNNY   65  37  35 NW21G29   29.77S
6HR MIN TEMP:  51; 6HR MAX TEMP:  65;

MINOT          CLOUDY    59  42  53 W20G30    29.72R
MINOT AFB      CLOUDY    57  42  59 NW25      29.70S
6HR MIN TEMP:  51; 6HR MAX TEMP:  57;

$$

NDZ018>021-031>035-040>046-261900-
...SOUTHWEST NORTH DAKOTA...

CITY           SKY/WX    TMP DP  RH WIND       PRES   REMARKS
BISMARCK       PTSUNNY   64  41  42 NW16G22   29.78S
DICKINSON      PTSUNNY   62  35  36 NW28G37   29.79R
GARRISON         N/A     58  42  55 W20G31    29.74R
HETTINGER      FAIR      64  37  36 NW29G35   29.84R
$$

NDZ004>008-012>016-024-026-027-054-261900-
...NORTHEAST NORTH DAKOTA...

CITY           SKY/WX    TMP DP  RH WIND       PRES   REMARKS
GRAND FORKS    CLOUDY    67  47  48 W13G23    29.67R
GRAND FORKS AF FAIR      66  46  48 W20G25    29.68R
DEVILS LAKE    CLOUDY    60  44  55 W21G26    29.70R
$$

NDZ022-023-025-028>030-036>039-047>053-261900-
...SOUTHEAST NORTH DAKOTA...

CITY           SKY/WX    TMP DP  RH WIND       PRES   REMARKS
JAMESTOWN      CLOUDY    59  43  55 W17       29.74R
FARGO          PTSUNNY   69  46  43 W22G28    29.70R
WAHPETON       FAIR      68  41  37 W17G24    29.73R
$$




USA.gov is the U.S. government's official web portal to all federal, state and local government web resources and services.